Showing default

AEHF 4 (USA 288), 43651

Orbit data source: Space-Track

AEHF 4 (USA 288), 43651 is a payload satellite owned by USAF MCSW (US) in GEO that was launched on Wed, 17 Oct 2018 UTC via an ATLAS V 551 launch vehicle from the Air Force Eastern Test Range (AFETR). Payloads include a variety of satellites, spacecraft, and rockets equipped with specific instruments for various scientific and technological missions. These include communications satellites like Starlink; space stations such as the ISS; scientific satellites like the Hubble; Earth observation satellites from companies like Planet Labs, Umbra, and HawkEye 360; GPS; miniature CubeSats for education and research; and military/defense satellites.

Loading next visibility...
AEHF 4 (USA 288) details
Identifier
43651, 2018-079A
Orbit
GEO
Last TLE update7 hours ago
Origin
Flag of USUSAF MCSW (US)
ManufacturerLMSS
MissionOperational Defense Communications
Bus & MotorA2100M, BT-4/AJ-EP?
Mass6,200 kg wet, ~4,000 kg dry
Launch date (UTC)
2018-10-17 (6 years ago)
Launch vehicle
ATLAS V 551
Launch site
Air Force Eastern Test Range (AFETR)
Object type
Payload
Rocket body
Debris
Shape & HBRBox + 2 Pan, 27 m
Radar Cross Section35.027 m², Large (>1 m²)

Expand to show TLE details & history

TLE from 7 hours ago
0 AEHF 4 (USA 288)
1 43651U 18079A   25025.52527177 -.00000252  00000-0  00000-0 0  9994
2 43651   1.6036 335.3826 0051124   6.3775 264.8057  1.00265686 23201
Epoch: 2025-01-25T12:36Z
Definitive object data (Epoch: 2025-01-25T12:36:23.48Z)
Latitude-1.61001°
Longitude-68.17683°
Altitude35,807.543 km
Speed3.073 km/s
True Right ascension16h 23m 58s
True Declination-1° 36' 30"
Sunlit
Object was in daylight at TLE epoch
Visualization TLE readout
Latitude0.54999°
Longitude41.93381°
Altitude35,579.014 km
Speed3.09 km/s
Apparent Right ascension00h 02m 23s
Apparent Declination-5° 29' 11"
Sunlit
Object is in daylight
Visualization observer readout
Local Sidereal Time21:13:47
Azimuth129.304° SE
Elevation30.309°
Doppler factor1
Orbital elements
Apogee altitude36,004.951 km
Perigee altitude35,573.797 km
Semi-major axis42,167.511 km
Eccentricity0.0051124
Inclination1.6036°
RAAN335.3826°
Arg. of periapsis6.3775°
True anomaly264.22262°
Mean anomaly264.8057°
Eccentric anomaly264.51412°
Mean motion0.25065 °/min
BSTARUnknown
Orbital period1436.24 mins
Loading historical data...
43651 neighbors
Authenticating...
Loading maneuver chart data...

AEHF 4 (USA 288) Visibility forecast

Observer location: undefined°, undefined

Span
Click to sort rows by Start time (UTC) header in descending order
Start Az.
Max El. time (UTC)
Max El. Az.
Max El.
End time (UTC)
End Az.
1440 mins2025-01-25 19:52:46.261Z129.318° SE2025-01-26 00:32:46.261Z128.064° SE27.229°2025-01-26 19:52:46.261Z129.313° SE
|